FW4272 Weather Reports


time (UTC)temp
C
wind
direction
speed
KPH
gust
KPH
rain 1hr
cm
rain 24hr
cm
rain mn
cm
humidity
%
barometer
mb
20260507220054 11 131 14.5 20.9 0.00 1.60 1.60 92 1001.2
20260507214559 11 140 14.5 29.0 0.00 1.60 1.60 92 1001.2
20260507213053 12 106 19.3 29.0 0.03 1.60 1.60 92 1001.3
20260507211553 12 96 19.3 33.8 0.03 1.60 1.60 92 1001.3
20260507210053 12 134 20.9 37.0 0.03 1.60 1.60 92 1001.3
20260507204556 12 129 17.7 30.6 0.03 1.60 1.60 92 1001.4
20260507203051 12 131 17.7 30.6 0.00 1.57 1.57 93 1001.0
20260507201557 11 104 20.9 30.6 0.10 1.57 1.57 93 1001.1
20260507200049 11 97 17.7 35.4 0.23 1.57 1.57 93 1000.5
20260507194547 11 96 22.5 37.0 0.25 1.57 1.57 92 1000.6
20260507193047 12 81 19.3 33.8 0.30 1.57 1.57 92 1001.4
20260507191536 12 101 17.7 27.4 0.28 1.45 1.45 92 1002.2
20260507190032 12 110 16.1 33.8 0.28 1.37 1.37 92 1002.8
20260507184530 12 99 16.1 27.4 0.41 1.32 1.32 92 1002.9
20260507183030 12 117 17.7 29.0 0.53 1.27 1.27 92 1002.8
20260507181528 12 137 22.5 40.2 0.86 1.19 1.19 92 1003.3
20260507180027 12 129 20.9 33.8 1.02 1.09 1.09 92 1003.3
20260507174535 12 144 22.5 32.2 0.91 0.91 0.91 91 1003.7
20260507173027 12 140 19.3 38.6 0.71 0.71 0.71 90 1004.2
20260507171520 12 146 27.4 45.1 0.33 0.33 0.33 89 1003.6
20260507170027 13 164 25.7 48.3 0.05 0.05 0.05 86 1003.3
20260507164517 14 145 25.7 61.2 0.00 0.00 0.00 83 1003.1
20260507163016 15 148 38.6 64.4 0.00 0.00 0.00 81 1002.9
20260507161515 15 126 38.6 64.4 0.00 0.00 0.00 80 1003.5
20260507160015 15 158 40.2 64.4 0.00 0.00 0.00 79 1003.5
20260507154512 15 135 38.6 57.9 0.00 0.00 0.00 79 1003.8
20260507153010 15 148 40.2 61.2 0.00 0.00 0.00 79 1003.9
20260507151507 16 149 33.8 61.2 0.00 0.00 0.00 77 1004.3
20260507150004 16 123 35.4 61.2 0.00 0.00 0.00 77 1004.9
20260507144556 16 157 35.4 57.9 0.00 0.00 0.00 76 1005.2
20260507143155 16 162 35.4 59.5 0.00 0.00 0.00 77 1005.4
20260507141553 15 144 45.1 66.0 0.00 0.00 0.00 78 1005.3
20260507140051 15 166 38.6 67.6 0.00 0.00 0.00 80 1005.9
20260507134552 15 146 35.4 54.7 0.00 0.00 0.00 81 1005.8
20260507133048 15 165 35.4 67.6 0.00 0.00 0.00 80 1005.6
20260507131556 15 135 41.8 70.8 0.00 0.00 0.00 80 1005.9
20260507130050 15 129 33.8 49.9 0.00 0.00 0.00 80 1006.2
20260507124547 15 153 38.6 62.8 0.00 0.00 0.00 80 1006.5
20260507123037 15 125 37.0 57.9 0.00 0.00 0.00 83 1006.5
20260507121533 14 129 32.2 62.8 0.00 0.00 0.00 86 1007.2
20260507120038 14 152 32.2 56.3 0.00 0.00 0.00 87 1006.6
20260507114525 13 108 30.6 51.5 0.00 0.00 0.00 89 1006.6
20260507113023 13 137 35.4 64.4 0.00 0.00 0.00 90 1007.3
20260507111517 13 144 29.0 59.5 0.00 0.00 0.00 89 1007.7
20260507110017 13 165 35.4 49.9 0.00 0.00 0.00 88 1008.4
20260507104516 13 177 27.4 46.7 0.00 0.00 0.00 87 1008.5
20260507103013 13 131 24.1 43.5 0.00 0.00 0.00 88 1008.0
20260507101508 12 126 22.5 38.6 0.00 0.00 0.00 89 1008.2
20260507100003 12 150 22.5 35.4 0.00 0.00 0.00 90 1008.5
20260507094600 12 139 19.3 35.4 0.00 0.00 0.00 90 1009.4
20260507093059 12 123 25.7 37.0 0.00 0.00 0.00 90 1009.6
20260507091557 12 148 16.1 37.0 0.00 0.00 0.00 90 1009.6
20260507090055 12 116 17.7 29.0 0.00 0.00 0.00 90 1009.9
20260507084546 12 133 14.5 32.2 0.00 0.00 0.00 90 1010.3
20260507083041 11 90 17.7 29.0 0.00 0.00 0.00 90 1010.0
20260507081548 11 106 20.9 33.8 0.00 0.00 0.00 90 1010.0
20260507080038 11 160 24.1 37.0 0.00 0.00 0.00 89 1010.0
20260507074551 11 145 24.1 43.5 0.00 0.00 0.00 89 1010.0
20260507073029 11 115 22.5 37.0 0.00 0.00 0.00 88 1010.6
20260507071525 11 146 17.7 33.8 0.00 0.00 0.00 88 1011.2
20260507070023 11 167 20.9 33.8 0.00 0.00 0.00 87 1011.7
20260507064521 11 140 25.7 40.2 0.00 0.00 0.00 87 1011.6
20260507063025 11 131 20.9 33.8 0.00 0.00 0.00 86 1011.3
20260507061519 11 144 24.1 37.0 0.00 0.00 0.00 86 1011.8
20260507060016 11 162 22.5 41.8 0.00 0.00 0.00 85 1011.6
20260507054510 11 93 22.5 37.0 0.00 0.00 0.00 83 1011.8
20260507053003 12 126 22.5 37.0 0.00 0.00 0.00 82 1012.2
20260507051558 12 108 20.9 35.4 0.00 0.00 0.00 81 1012.6
20260507050056 12 104 20.9 32.2 0.00 0.00 0.00 82 1013.3
20260507044552 12 123 24.1 35.4 0.00 0.00 0.00 80 1013.6
20260507043045 12 102 22.5 40.2 0.00 0.00 0.00 79 1013.9
20260507041540 12 129 24.1 40.2 0.00 0.00 0.00 78 1014.2
20260507040033 12 110 20.9 35.4 0.00 0.00 0.00 78 1014.5
20260507034525 13 146 19.3 32.2 0.00 0.00 0.00 77 1015.2
20260507033023 13 157 20.9 27.4 0.00 0.00 0.00 78 1015.2
20260507031516 12 144 19.3 29.0 0.00 0.00 0.00 78 1015.7
20260507030011 13 131 17.7 24.1 0.00 0.00 0.00 78 1015.9
20260507024509 13 134 17.7 29.0 0.00 0.00 0.00 77 1016.1
20260507023008 13 139 16.1 25.7 0.00 0.00 0.00 77 1016.4
20260507021506 13 121 14.5 29.0 0.00 0.00 0.00 77 1016.3
20260507020006 13 117 12.9 29.0 0.00 0.00 0.00 78 1016.5
20260507014504 13 125 19.3 29.0 0.00 0.00 0.00 77 1016.4
20260507013002 13 131 14.5 25.7 0.00 0.00 0.00 77 1016.6
20260507011502 13 139 12.9 24.1 0.00 0.00 0.00 76 1016.7
20260507010113 13 138 14.5 27.4 0.00 0.00 0.00 75 1016.8
20260507004559 13 161 14.5 24.1 0.00 0.00 0.00 75 1016.9
20260507003058 13 136 16.1 24.1 0.00 0.00 0.00 74 1016.9
20260507001603 14 139 14.5 24.1 0.00 0.00 0.00 73 1016.8
20260507000056 15 176 14.5 29.0 0.00 0.00 0.00 72 1016.9
20260506234556 15 147 16.1 25.7 0.00 0.00 0.00 71 1016.8
20260506233109 15 191 16.1 29.0 0.00 0.00 0.00 70 1016.6
20260506231552 16 164 14.5 30.6 0.00 0.00 0.00 68 1016.2
20260506230052 16 154 17.7 32.2 0.00 0.00 0.00 66 1015.9
20260506224551 17 181 19.3 45.1 0.00 0.00 0.00 62 1015.5
20260506223050 17 167 30.6 48.3 0.00 0.00 0.00 59 1015.4
20260506221550 18 182 30.6 45.1 0.00 0.00 0.00 58 1015.4